Wind_Speed
8 8 7 6 6 6 6 6 6 5 4 3 3 3 3 3 4 6 6 7 9 12 16 19 22 21 18 18 19 21 23 25 25 22 21 20 19 18 17 16 14 15 16 17 17 18 17 17 17 17 17 18 19 19 19 19 19 20 20 21 21 22 23 22 22 23 23 23 24 25 26 26 27 28 28 29 29 30 30 30 31 31 32 33 34 34 34 35
9 9 8 8 7 6 6 7 7 7 6 5 4 3 3 3 4 3 2 1 1 4 7 10 14 17 16 14 13 13 14 16 15 15 15 15 15 14 13 13 12 13 13 14 14 15 15 16 17 17 18 18 19 20 20 20 20 21 21 23 23 24 25 25 25 26 26 26 27 27 28 28 29 29 30 30 31 32 32 32 33 33 34 35 35 36 36 37
8 8 8 8 8 7 7 7 7 7 7 6 4 3 2 2 3 4 4 3 3 2 0 1 3 5 7 8 8 7 7 7 6 7 8 8 8 9 10 10 11 11 12 13 14 15 16 17 18 18 19 19 20 21 21 22 22 23 24 25 25 26 27 27 28 28 29 29 29 29 30 30 30 31 31 31 32 33 33 33 34 35 35 36 37 38 38 39
7 7 7 7 7 7 7 7 6 6 5 5 4 3 3 2 2 3 3 2 2 2 1 0 1 1 2 3 5 5 5 5 5 6 6 7 8 10 11 11 12 13 14 15 16 17 18 19 20 20 21 21 22 23 23 23 24 25 26 26 27 28 28 28 29 29 30 30 30 31 31 30 31 32 32 32 33 33 33 34 35 35 36 37 38 38 39 39
6 5 5 5 5 6 6 6 5 5 4 4 4 4 3 3 3 3 3 3 3 3 3 3 3 4 4 5 6 6 6 7 7 7 8 10 11 12 13 14 14 15 16 18 19 19 20 21 22 22 22 23 23 23 23 24 25 26 26 26 27 28 28 29 29 29 30 30 30 31 31 31 32 32 32 33 34 33 34 35 35 35 36 37 38 38 39 39
5 4 3 3 4 4 4 3 4 4 4 4 4 4 3 2 2 2 3 3 3 4 4 5 6 6 7 7 8 8 8 9 10 10 11 12 13 14 15 16 16 17 17 19 20 20 21 21 22 22 23 23 23 24 24 25 26 27 26 27 28 28 28 28 29 29 29 29 29 30 30 30 31 31 32 33 33 33 34 35 35 36 36 37 38 38 39 39
6 4 3 1 1 2 2 2 2 2 3 3 4 3 2 2 2 2 1 1 1 2 3 4 5 6 7 7 8 8 9 10 11 11 12 13 14 14 15 16 16 16 17 18 19 20 20 21 22 22 23 23 24 24 25 25 26 27 26 26 27 27 27 27 28 28 28 29 29 29 30 30 31 31 32 33 33 34 34 35 36 36 37 37 38 38 39 39
7 5 3 2 2 1 1 2 2 2 2 3 3 2 1 1 1 1 0 1 2 2 3 4 5 6 7 8 8 9 10 11 12 12 13 14 14 14 15 16 16 17 18 19 20 21 21 22 22 23 23 22 22 23 23 24 24 24 24 24 25 25 26 26 27 28 28 29 30 30 30 31 32 32 33 33 34 35 35 36 36 37 37 38 38 39 39 40
9 7 4 4 3 2 1 2 3 3 3 3 3 2 2 1 1 1 2 3 4 5 6 7 7 8 9 10 10 11 12 13 14 14 15 15 16 17 17 18 18 19 19 20 20 20 21 21 21 21 20 20 20 20 22 23 23 23 24 25 25 26 26 27 27 28 29 29 30 30 31 32 33 33 33 33 34 36 36 37 37 38 38 39 39 39 40 40
10 8 6 5 3 2 1 3 3 3 4 3 3 3 3 3 3 3 4 5 6 7 8 9 10 10 11 12 12 13 14 15 16 16 16 17 17 17 17 17 17 17 17 17 17 17 17 18 18 19 19 19 20 21 22 23 23 24 25 25 26 26 26 27 27 28 29 30 31 32 32 33 34 35 34 34 36 37 37 37 38 38 39 39 40 40 40 41
9 8 7 6 4 2 1 3 3 3 3 3 3 3 4 5 5 5 6 7 8 8 9 10 11 12 12 13 13 13 14 15 15 15 15 15 15 14 14 14 14 14 14 15 15 16 17 18 19 20 21 20 21 22 22 23 24 24 25 25 26 27 27 28 29 30 31 32 33 34 34 35 35 35 34 35 37 37 37 38 38 39 39 39 40 40 40 41
9 9 8 7 4 2 1 2 3 3 3 3 4 4 5 5 6 7 7 8 9 10 11 12 12 12 13 13 12 12 12 12 12 11 12 12 12 12 12 13 13 14 15 16 17 18 18 19 20 20 20 21 21 22 23 24 25 26 26 27 28 29 29 29 30 31 32 33 33 34 35 34 35 34 34 35 37 37 37 38 38 38 39 39 40 40 41 41
10 10 9 7 4 2 1 2 2 2 3 4 4 4 5 6 7 7 8 9 10 11 11 11 11 11 12 12 11 11 11 11 11 11 11 12 12 12 13 13 14 15 16 16 17 18 18 19 19 20 21 22 23 23 24 25 26 27 27 28 29 29 29 29 30 31 31 32 32 34 34 34 35 32 31 35 37 36 37 37 38 38 39 39 40 41 41 42
11 11 10 7 3 1 1 2 2 3 4 4 5 5 6 7 7 8 9 9 9 10 10 10 10 10 11 11 11 11 11 12 12 13 13 13 14 13 14 14 15 15 16 17 17 18 19 19 20 22 23 23 24 25 26 26 27 27 27 29 28 29 30 28 29 31 31 31 32 34 34 34 34 31 31 35 36 36 37 37 38 39 40 41 41 42 42 43
11 11 10 7 3 2 2 2 3 3 4 5 5 6 7 8 8 8 8 8 8 8 8 9 9 9 10 11 11 11 12 12 12 12 12 13 13 13 14 14 16 17 18 18 19 20 20 21 22 23 24 24 25 26 27 27 27 27 28 30 28 29 32 29 29 32 32 32 33 34 35 34 34 33 34 36 36 37 38 38 39 39 40 41 41 41 41 42
11 12 10 6 2 2 3 3 3 4 5 6 6 7 8 8 8 7 7 7 7 7 8 8 9 10 10 11 11 11 12 11 11 11 11 12 13 14 15 16 18 19 19 20 20 21 22 23 23 24 25 25 26 26 27 28 28 27 28 31 30 29 33 32 30 32 33 33 33 34 35 35 35 34 35 37 36 37 36 36 37 37 37 37 37 36 37 37
11 12 10 5 3 3 3 3 4 5 6 6 7 7 7 7 6 7 7 7 7 8 9 9 10 10 10 10 10 10 10 10 11 12 14 15 16 16 17 18 19 20 21 21 22 22 23 23 24 25 25 25 26 26 28 28 28 28 28 30 31 30 32 33 31 31 33 33 33 34 34 33 35 35 34 34 34 33 33 33 33 33 33 32 32 32 32 32
12 12 9 4 3 4 4 4 5 6 7 7 7 6 5 6 6 7 7 7 8 8 8 8 8 8 8 9 9 9 11 12 13 15 17 17 17 18 19 20 21 21 22 22 23 23 23 24 24 24 25 25 26 26 27 28 29 30 29 29 31 30 31 32 31 31 32 32 32 33 32 31 32 33 31 31 32 30 30 32 31 31 30 29 30 29 29 29
12 12 8 4 3 4 4 5 6 7 7 7 6 5 5 5 6 7 8 8 7 6 6 6 7 7 8 9 11 12 13 14 15 17 18 19 19 20 21 21 21 22 22 23 23 23 23 23 23 24 24 24 25 26 26 27 28 29 29 29 29 30 30 29 30 30 30 31 30 31 31 28 27 30 30 29 29 29 29 31 30 29 29 29 29 29 29 29
12 11 7 4 4 4 5 6 7 7 6 5 4 4 5 7 7 8 7 6 5 5 6 7 8 9 9 11 12 13 14 15 17 18 19 20 21 22 22 22 22 22 22 22 22 22 22 22 23 23 24 24 25 25 26 27 27 28 28 29 28 29 30 28 28 29 29 30 28 29 29 26 25 29 31 29 28 29 29 29 29 29 29 29 29 29 29 29
12 9 5 4 4 5 6 7 6 5 4 4 4 5 6 7 6 5 4 4 4 6 6 8 10 10 11 13 14 14 16 17 18 19 20 21 22 22 23 23 23 22 21 21 21 21 21 22 22 23 24 24 25 25 26 26 26 27 27 28 28 28 28 28 28 28 28 29 28 28 27 24 25 29 31 31 29 28 29 28 28 29 30 29 29 29 29 29
10 7 5 4 4 5 7 6 4 3 3 4 5 6 6 5 4 3 3 3 5 7 8 10 12 11 12 14 15 16 18 19 19 21 21 22 22 22 22 22 22 21 21 21 21 21 21 22 22 23 24 24 25 25 25 26 26 26 26 27 27 27 27 27 27 27 27 27 27 28 26 23 27 31 31 33 30 28 28 28 29 30 30 30 30 29 29 30
9 6 5 5 5 6 6 4 2 3 4 4 4 4 3 3 3 3 3 4 7 9 10 12 14 13 14 15 16 18 19 19 20 21 21 21 21 21 21 21 20 20 20 20 21 21 21 22 23 23 24 24 25 25 25 25 25 26 26 26 26 26 26 26 25 25 27 27 28 30 27 23 25 28 31 33 30 29 29 28 29 31 32 32 30 30 30 32
7 5 5 5 5 5 3 2 2 3 4 3 2 2 3 3 3 4 5 5 9 11 11 14 14 14 15 16 17 18 19 19 20 20 20 20 20 19 19 19 19 19 20 20 21 22 22 22 23 23 24 24 24 24 25 25 24 25 25 25 25 25 25 26 26 25 26 26 27 30 26 20 20 22 26 32 32 31 31 28 30 32 33 32 31 31 32 33
5 5 5 5 5 3 1 2 3 3 2 1 2 3 3 3 4 6 6 8 11 12 13 15 14 15 16 17 18 18 19 20 20 20 20 19 19 19 18 19 19 19 20 21 21 22 23 23 23 23 24 24 24 24 24 24 24 24 24 24 24 24 24 25 26 25 25 23 23 27 22 11 11 16 21 29 33 32 31 28 29 31 32 32 32 33 34 34
5 5 6 5 3 2 2 3 3 2 1 3 3 3 3 4 5 7 8 10 13 14 14 15 15 16 16 17 18 19 20 20 20 20 19 19 19 18 18 18 19 20 20 21 22 22 22 23 23 23 23 23 23 23 23 23 23 23 23 24 23 24 23 23 24 23 23 23 20 25 23 9 5 12 18 27 33 33 33 31 30 32 32 33 34 34 35 35
4 5 5 3 2 2 3 3 1 1 3 3 2 3 3 4 7 9 10 12 14 14 15 15 15 17 17 18 19 19 20 19 19 19 19 19 18 18 18 18 19 20 20 21 21 20 20 20 20 20 21 21 21 21 21 21 22 22 22 22 22 22 22 22 22 22 22 22 20 21 25 18 10 12 19 27 33 34 34 35 33 33 34 34 35 36 36 37
4 3 3 3 2 3 2 1 2 3 3 2 2 3 4 6 9 11 12 13 14 14 15 15 16 17 17 19 19 19 20 19 19 19 18 18 18 18 18 18 18 18 18 18 18 17 17 17 17 18 18 18 19 19 19 19 20 20 20 20 21 21 21 21 22 22 21 20 20 21 24 24 17 16 21 27 31 34 34 36 36 36 36 36 37 37 38 38
3 3 3 3 3 2 2 2 3 3 2 2 2 4 6 7 10 12 12 13 14 14 15 15 16 17 18 19 19 19 19 19 19 18 18 17 17 16 16 16 16 15 15 16 15 16 16 16 16 16 16 17 17 18 18 19 18 19 20 20 21 21 22 23 22 23 23 20 21 22 25 26 19 16 24 27 28 33 35 37 38 38 39 39 38 37 37 37
2 3 3 3 2 2 3 3 3 3 2 2 3 5 7 9 11 12 12 13 14 14 15 15 16 17 18 18 18 19 18 18 18 17 17 16 15 15 15 15 15 15 15 15 15 16 16 16 16 16 17 17 18 18 19 19 19 20 21 21 22 22 22 23 23 24 24 22 21 22 25 27 21 16 24 29 30 35 38 39 39 40 40 39 38 36 36 37
2 3 3 2 2 3 4 4 3 2 2 2 4 6 8 10 11 12 12 12 13 14 14 15 16 17 17 18 18 18 18 17 17 17 16 16 15 15 15 15 15 15 16 16 16 16 16 17 17 17 18 19 19 20 20 20 20 21 22 22 24 24 24 23 23 23 23 23 23 23 24 25 22 20 25 32 35 37 39 39 38 37 37 37 37 36 36 37
3 3 2 3 4 4 4 3 2 2 2 2 5 7 9 10 11 11 11 12 13 13 14 15 16 17 17 17 17 17 17 17 17 17 17 16 16 16 17 17 17 17 17 17 17 17 18 18 18 19 20 20 21 21 21 21 21 22 22 24 25 26 27 25 25 24 23 23 22 22 24 23 21 23 29 33 35 36 36 36 35 34 35 35 35 35 35 36
3 3 4 5 5 4 3 3 2 1 2 3 6 8 9 10 11 11 11 12 12 13 14 15 16 16 17 17 17 17 17 17 17 17 17 18 18 18 18 19 19 19 19 19 19 19 19 19 20 21 21 22 22 22 23 22 22 23 24 25 26 28 29 28 27 27 25 24 23 22 23 23 21 25 32 35 34 36 35 34 34 34 34 33 33 34 35 35
4 4 5 5 5 4 3 2 1 1 2 4 7 8 9 10 10 10 10 11 12 13 14 15 15 16 16 16 17 17 17 17 17 18 18 18 18 19 19 19 20 20 20 20 21 21 22 21 22 22 22 23 23 24 25 24 23 24 25 26 27 28 31 31 30 31 31 28 25 23 23 23 22 25 33 37 35 36 35 33 33 34 34 35 35 35 36 37
5 6 6 5 4 3 2 2 1 1 3 5 7 8 9 9 9 9 10 11 12 13 14 14 15 15 15 16 16 17 17 17 18 18 18 18 19 19 20 20 20 21 21 21 21 22 23 23 23 23 24 24 24 25 26 26 26 25 26 27 28 29 31 33 32 33 35 34 30 26 23 21 22 23 30 37 36 35 35 32 33 35 36 37 37 37 38 39
6 6 6 5 4 3 3 2 0 1 4 6 7 8 9 9 9 9 10 11 12 13 13 14 14 14 15 16 16 17 18 18 18 19 19 19 19 20 21 21 21 22 22 22 22 22 23 24 24 24 24 25 25 25 26 28 28 28 28 28 30 31 31 34 35 34 37 38 35 32 27 23 23 23 26 32 34 35 36 34 34 37 38 39 39 39 40 41
7 6 5 5 4 3 3 2 1 2 5 7 8 8 8 8 8 9 10 11 11 12 13 13 13 14 15 16 16 17 18 18 19 19 20 20 20 21 22 22 22 23 23 23 23 24 24 24 25 25 25 25 25 25 26 28 29 29 30 30 31 33 32 34 36 37 39 42 40 38 33 28 24 21 23 27 30 34 39 39 39 39 39 40 40 41 42 43
7 6 5 4 4 3 2 2 2 3 5 7 8 8 7 8 8 9 10 11 11 12 12 13 13 14 15 16 16 17 18 19 20 20 21 22 22 23 23 23 24 24 24 24 24 25 25 24 25 25 26 26 26 27 26 27 29 30 30 31 32 34 35 36 37 38 41 44 45 42 39 32 21 16 20 23 27 33 40 44 43 41 41 41 42 43 44 45
7 5 5 4 3 3 2 2 3 4 6 7 7 7 7 7 8 9 10 10 10 11 11 12 13 13 15 16 16 18 19 20 21 22 22 23 23 24 25 25 25 25 26 26 26 26 27 26 26 26 27 27 27 28 28 28 29 30 31 31 32 34 37 37 38 39 40 45 47 46 47 34 14 10 19 24 28 34 41 46 46 44 42 42 44 44 45 46
7 5 5 4 3 3 3 3 3 5 6 7 7 6 6 7 8 9 10 10 10 11 11 12 13 14 15 16 17 18 20 21 22 22 23 24 25 25 25 26 26 27 27 27 28 28 28 28 28 27 27 28 27 29 30 30 30 31 31 32 33 35 38 39 40 39 40 45 46 48 52 33 10 13 26 31 35 39 43 47 46 44 44 43 45 45 46 46
6 5 5 4 4 4 3 3 4 5 7 7 7 6 6 7 8 9 9 9 10 10 11 12 13 14 15 17 18 19 21 22 23 23 24 25 26 26 27 27 27 28 28 28 29 30 29 29 30 29 29 29 28 29 30 31 31 32 32 33 34 35 38 41 43 41 40 43 42 48 54 32 16 27 37 37 39 41 43 47 46 45 45 44 45 46 46 47
6 5 5 4 4 4 4 4 4 6 7 7 6 6 7 7 8 9 9 9 10 11 12 12 13 15 16 18 20 21 22 23 24 25 26 26 27 28 28 28 29 29 30 30 30 31 31 31 31 31 31 31 30 30 31 31 32 32 33 34 35 37 39 42 45 45 44 44 41 46 53 37 29 39 42 39 42 43 45 48 47 46 45 45 46 47 47 48
5 5 5 4 4 4 5 5 5 6 7 6 6 6 7 8 8 9 9 9 10 11 12 13 14 16 18 20 22 23 24 25 26 27 28 28 29 29 29 30 30 31 31 32 32 32 33 33 33 33 33 32 31 31 33 32 33 33 33 34 36 39 40 42 45 47 47 46 43 48 55 46 42 46 44 43 45 45 47 48 47 47 46 46 47 48 49 50
5 5 5 5 5 5 6 6 6 7 7 6 6 7 8 8 9 9 9 10 11 12 13 14 16 18 20 21 23 25 27 28 28 29 30 30 30 31 31 31 32 32 33 33 34 34 35 35 36 36 36 36 35 35 35 35 35 35 35 36 37 39 42 43 45 47 48 46 45 51 57 53 49 49 47 47 48 47 48 48 47 47 47 48 49 49 50 51
5 6 6 6 5 6 7 7 7 8 7 7 7 8 9 9 9 9 10 11 12 13 14 16 18 20 22 24 25 27 29 30 30 31 31 31 32 33 33 33 34 33 34 35 35 36 36 36 37 38 38 39 39 39 39 38 38 38 37 37 39 39 42 44 46 48 49 49 50 53 55 54 51 48 48 49 50 50 50 49 49 49 49 50 51 52 53 53
5 6 6 6 5 6 7 8 8 8 8 8 9 9 9 10 10 11 11 12 14 15 16 18 20 22 24 26 27 29 30 32 33 33 33 33 34 34 34 34 35 35 35 37 37 38 38 37 37 39 39 40 40 41 42 40 40 40 39 40 40 41 43 45 47 47 49 53 55 52 54 56 52 47 48 50 51 52 51 50 51 51 50 51 52 54 54 54
5 6 7 6 6 7 8 9 9 9 9 10 10 10 11 11 12 12 13 14 16 17 19 21 23 25 26 28 30 31 32 34 35 34 34 35 36 36 36 36 36 36 37 38 39 41 41 40 39 40 40 41 42 43 44 44 43 42 42 42 42 44 45 47 48 47 49 56 58 52 53 58 55 50 51 53 54 54 53 53 53 53 52 53 53 55 56 56
6 7 7 7 7 8 8 10 10 10 10 11 11 12 12 13 13 14 15 17 18 20 21 23 25 28 29 31 33 34 34 36 36 35 35 37 38 37 37 37 37 38 39 39 41 43 44 43 42 42 42 42 44 45 45 47 47 45 44 44 44 47 48 49 49 49 50 56 58 54 54 58 56 53 53 55 56 57 57 56 56 55 54 55 55 57 57 58
7 8 8 8 8 8 9 10 11 11 11 12 13 14 14 15 16 17 18 19 20 22 25 26 27 30 32 33 36 36 37 39 39 37 37 38 39 39 39 39 39 40 40 41 42 44 47 47 45 46 47 45 45 47 48 49 50 49 47 45 46 49 51 52 52 51 52 56 58 56 57 58 54 53 56 57 58 60 60 59 58 57 57 57 58 59 59 60
8 8 9 9 9 9 10 11 12 12 13 14 15 16 16 17 18 19 20 22 23 25 27 29 31 33 34 36 38 38 39 42 41 40 40 40 40 40 41 40 40 41 42 42 43 45 48 50 48 50 52 49 47 49 51 51 52 53 50 47 47 50 53 55 56 55 56 58 58 59 61 59 55 55 59 59 60 61 62 62 61 60 59 59 60 61 62 62
9 10 10 10 10 10 11 12 13 13 14 16 16 17 19 20 21 22 23 25 27 28 30 32 34 36 37 39 40 40 42 43 43 43 42 43 42 42 42 42 42 43 43 43 45 46 48 51 51 52 56 55 51 52 54 54 56 57 53 48 48 51 54 56 58 58 59 60 60 60 62 61 59 59 62 62 62 64 64 64 64 63 61 61 62 63 64 64
9 10 11 11 11 12 12 13 14 15 16 18 18 20 21 22 24 26 26 27 29 31 33 34 37 39 40 41 42 43 44 45 45 45 45 44 44 43 44 44 44 45 45 45 47 48 49 51 52 54 59 58 56 56 57 59 62 60 54 50 51 53 56 59 60 61 61 61 61 63 64 63 62 63 64 63 64 66 66 66 66 64 62 62 64 65 65 65
Wind_Direction
169 172 174 176 170 156 138 121 118 124 135 140 146 160 187 212 227 236 244 258 258 254 251 244 244 247 247 246 243 244 243 239 234 231 235 240 244 246 249 252 252 253 254 255 257 259 261 262 264 264 265 267 268 268 268 268 268 268 269 270 269 270 271 271 270 270 270 270 270 271 272 273 273 273 273 273 274 274 274 273 273 273 272 273 273 274 273 274
166 170 172 173 168 158 143 133 132 133 127 117 108 106 115 117 118 123 124 131 252 254 252 244 242 245 252 259 256 253 248 244 242 238 240 241 245 249 251 254 255 257 261 262 263 265 266 266 265 264 263 263 264 266 266 267 267 268 269 269 270 271 272 273 273 274 273 273 273 273 273 273 274 273 273 273 274 274 274 274 273 273 272 272 272 273 273 274
158 162 166 170 169 161 152 147 141 132 127 123 126 129 128 111 109 110 103 101 96 98 157 259 246 245 253 263 264 263 257 252 257 259 260 257 257 259 259 260 261 264 267 268 268 268 268 267 266 266 265 265 266 267 268 269 269 270 270 270 272 272 273 274 275 275 275 276 275 275 275 275 275 274 274 274 274 274 274 274 273 273 273 273 273 273 273 274
145 149 156 166 168 168 167 158 144 132 131 135 148 161 174 184 173 158 150 150 156 154 154 197 246 256 259 262 265 269 270 267 270 274 279 276 270 268 264 263 263 265 268 269 269 268 268 269 269 270 270 271 271 271 272 272 271 271 271 271 273 273 274 275 275 275 276 276 276 276 276 276 275 275 275 274 274 274 274 273 273 273 273 273 273 273 273 274
126 132 141 153 163 176 174 155 142 141 147 160 172 182 186 184 178 179 190 205 223 235 243 251 253 259 260 261 267 272 278 278 276 274 273 271 269 267 267 267 266 267 267 269 270 269 269 269 271 272 273 274 274 274 274 273 273 272 272 273 274 274 275 276 276 277 277 277 276 276 276 275 275 275 275 274 274 274 274 274 274 274 274 273 273 274 274 274
99 106 118 140 166 178 167 133 134 147 160 178 191 193 179 145 128 142 170 198 221 237 246 252 255 256 257 259 265 270 274 275 274 273 273 272 271 270 270 270 269 268 267 268 269 269 269 269 271 272 272 273 274 275 274 274 274 274 275 276 275 276 276 276 277 277 277 277 277 276 276 277 276 276 276 276 277 276 276 276 276 276 275 276 276 276 276 276
75 72 78 109 166 171 148 134 142 153 172 191 193 187 169 121 98 100 117 149 201 229 242 252 260 262 263 264 266 269 271 271 272 274 275 274 273 272 271 271 271 270 269 269 270 270 270 271 271 272 272 274 275 275 276 275 275 276 278 277 276 276 276 277 277 277 277 277 278 278 278 278 278 278 278 278 278 278 278 278 277 277 277 278 278 278 278 278
61 56 50 25 2 360 140 157 172 173 196 215 206 189 177 134 95 74 351 318 291 281 275 269 272 273 273 274 276 280 281 279 280 280 278 278 277 276 274 274 274 274 273 273 273 273 274 274 275 275 275 276 277 278 277 277 277 278 278 277 277 277 277 277 277 277 278 278 279 279 279 279 279 279 279 280 280 280 280 279 280 280 280 279 279 279 279 279
50 46 40 21 5 337 213 182 193 197 205 220 224 219 232 249 272 287 292 292 290 291 291 286 283 281 279 278 277 277 277 277 277 277 277 277 276 275 275 276 276 276 276 276 276 277 278 278 279 279 279 280 280 279 278 279 279 279 278 277 278 278 278 278 278 279 279 280 280 280 280 280 280 281 281 282 281 281 281 281 281 281 281 281 281 281 281 281
40 36 31 21 9 325 240 201 200 208 216 222 232 241 254 268 278 284 286 287 288 289 289 289 288 287 285 284 282 279 277 276 275 276 276 276 276 276 277 278 278 278 279 279 280 280 280 280 281 282 282 283 282 280 280 281 281 280 279 280 281 281 281 281 281 281 281 281 281 281 281 281 282 283 283 283 282 281 282 282 281 281 281 281 281 281 281 281
29 24 21 18 9 343 271 220 208 212 230 242 248 253 263 275 285 291 293 294 296 295 294 293 292 292 290 288 286 283 281 280 281 282 282 283 285 286 286 286 286 285 285 285 284 283 282 282 282 283 284 285 283 282 283 283 283 283 283 283 283 283 283 284 284 283 283 282 282 283 283 283 284 284 284 283 282 282 282 281 281 281 281 281 281 281 280 280
16 12 12 14 9 352 290 239 226 225 247 262 263 265 273 284 290 294 296 297 298 297 296 295 295 295 293 292 291 289 287 288 289 290 291 292 293 292 292 291 290 289 287 286 285 284 283 282 283 283 285 285 284 284 284 284 284 284 284 284 284 284 284 284 283 282 282 282 283 283 282 283 282 282 284 282 281 281 280 280 280 280 280 280 280 279 279 279
5 3 5 8 5 353 280 255 252 254 266 270 271 274 281 288 292 294 295 295 296 296 295 294 295 296 296 298 300 299 299 301 303 305 305 304 301 297 295 292 291 290 289 288 287 286 285 284 284 284 286 286 285 286 285 285 285 285 285 285 285 284 284 284 283 283 283 283 282 281 282 282 282 282 282 280 279 279 279 280 280 280 280 279 279 279 279 278
357 357 360 360 357 342 303 292 290 287 285 279 279 282 288 291 293 294 295 296 296 295 295 296 299 300 301 303 304 304 306 307 309 311 311 308 305 300 298 297 296 296 295 293 291 290 289 289 289 289 289 289 288 288 288 288 288 288 288 287 288 287 287 287 285 286 285 285 284 284 285 284 285 286 282 279 280 281 280 280 280 280 280 279 279 279 278 278
351 352 353 352 346 333 317 313 311 299 291 287 288 291 292 294 295 298 299 300 299 299 301 303 305 306 307 308 306 306 306 307 309 311 311 309 306 302 300 299 299 299 297 295 294 292 292 291 292 292 291 291 290 291 291 291 291 292 291 289 290 290 290 290 288 288 288 287 287 287 288 288 288 287 284 282 283 282 282 282 281 281 280 279 279 279 279 278
344 346 346 344 334 329 318 316 312 300 294 292 293 293 293 297 301 307 308 308 309 309 311 312 312 313 314 311 308 309 309 310 311 311 312 311 307 303 300 298 298 298 297 296 295 294 293 293 293 292 292 292 292 292 292 292 292 292 291 291 291 290 290 291 289 290 290 289 290 289 290 291 289 287 286 285 285 284 284 283 282 281 281 281 281 280 280 279
336 339 339 334 325 324 316 317 311 300 298 295 295 294 299 308 313 316 316 317 319 319 321 321 322 323 324 321 318 317 315 313 313 313 315 312 307 303 300 299 299 299 298 297 295 294 294 293 292 292 292 293 293 293 293 292 292 291 290 290 291 291 290 291 291 291 290 291 291 290 290 291 290 288 287 286 286 286 286 284 284 284 285 284 283 283 282 282
328 333 332 324 316 317 312 314 307 301 300 298 298 300 310 319 322 324 324 327 327 327 332 334 337 339 339 337 329 323 318 315 314 314 313 310 306 303 300 300 299 299 297 296 295 294 293 292 292 292 292 293 292 292 292 292 293 292 291 290 291 291 291 292 293 292 291 291 291 291 290 290 290 289 288 288 289 289 288 287 288 289 289 287 287 287 286 285
322 327 325 314 306 311 311 311 305 302 303 301 304 311 324 330 330 329 329 335 340 345 351 351 351 344 339 336 330 323 318 315 313 310 309 307 305 303 301 301 299 297 296 295 295 294 293 293 293 293 293 293 292 292 292 291 292 292 293 292 292 292 292 293 294 293 291 291 292 291 291 292 292 289 289 290 291 291 289 290 291 291 289 288 288 287 286 286
317 320 315 302 301 307 307 308 307 306 306 305 312 327 335 334 331 332 340 353 8 11 2 352 341 329 324 326 324 319 315 312 310 309 308 307 306 304 302 301 299 298 297 296 296 295 295 295 295 294 294 293 292 292 291 292 292 292 293 293 293 294 294 295 294 293 293 293 293 292 293 296 294 291 292 292 292 291 290 292 292 290 288 288 288 287 287 288
313 312 303 294 295 301 305 309 310 309 310 312 326 336 335 333 336 348 12 24 21 6 354 346 336 324 320 321 318 316 314 313 311 309 309 308 306 305 303 302 300 300 299 298 297 296 297 297 296 295 294 294 293 293 292 292 292 292 293 293 293 294 295 296 295 294 295 295 295 294 295 299 296 293 294 293 291 290 291 291 290 288 289 288 288 288 289 289
309 301 289 287 290 301 308 311 313 313 319 326 336 339 339 352 14 31 28 12 357 347 338 337 334 326 321 321 319 318 316 315 313 312 311 310 308 307 305 304 303 302 302 300 300 298 298 297 296 296 295 295 294 293 292 292 293 293 294 294 294 295 295 296 295 295 295 295 295 294 295 299 296 294 293 291 290 290 289 289 288 288 287 287 288 289 288 286
300 286 282 285 296 309 311 312 315 316 325 332 340 351 19 44 48 30 6 350 344 339 332 332 331 325 323 322 320 320 318 317 316 315 314 312 309 308 306 305 304 303 302 302 301 300 299 298 297 296 295 294 293 293 293 293 294 294 294 294 295 296 295 295 294 294 294 295 295 293 294 297 295 294 292 290 290 288 286 285 285 284 284 286 287 287 285 284
286 276 281 291 305 311 309 307 309 315 326 335 2 64 73 58 36 10 358 346 341 338 334 332 330 326 323 323 323 322 321 320 318 317 316 313 310 309 307 305 304 303 302 301 300 300 299 298 297 296 294 294 294 294 294 294 294 294 294 294 295 294 294 294 293 292 292 294 295 294 297 300 294 289 290 289 288 285 284 284 283 282 284 286 285 284 283 283
272 276 288 299 306 302 291 301 306 315 329 62 103 93 66 37 23 6 355 345 340 339 335 332 329 327 326 325 327 326 324 323 321 319 317 314 312 310 308 307 306 304 303 302 301 301 300 299 297 296 295 295 295 295 295 294 294 294 294 294 294 294 293 293 293 293 294 295 297 298 302 309 296 292 290 286 285 286 288 288 286 285 285 285 284 283 284 284
266 284 296 298 291 280 297 303 304 306 131 123 107 75 39 23 13 359 348 343 341 338 335 333 330 330 330 329 330 328 326 325 322 320 318 316 315 313 311 310 308 307 305 304 303 303 302 301 300 299 299 299 298 297 297 297 297 297 297 296 295 294 294 294 294 297 299 301 304 302 303 309 295 291 288 283 283 286 290 290 288 288 288 289 288 288 289 289
272 290 292 281 267 291 301 297 279 162 138 123 89 49 30 15 3 353 345 341 340 337 335 335 333 333 333 332 331 330 328 327 325 323 321 319 318 316 314 312 310 309 307 306 307 307 306 307 307 307 306 306 305 304 303 302 300 299 298 297 297 297 298 300 301 303 303 304 306 301 299 302 305 293 281 277 281 284 287 288 289 291 293 295 295 295 295 295
279 278 265 258 274 291 283 254 166 143 133 115 74 41 24 8 356 348 343 340 339 338 337 337 336 336 335 333 333 332 332 331 330 328 325 323 321 318 316 314 313 312 312 313 314 316 317 318 318 317 316 315 314 312 309 308 305 302 301 301 301 302 303 304 304 303 303 305 304 300 297 301 312 303 279 272 277 281 283 286 289 292 295 297 298 299 299 299
268 247 248 266 278 267 216 168 145 138 123 97 64 28 12 360 350 343 341 340 339 340 340 338 339 338 336 337 337 337 338 337 335 333 331 328 326 323 322 321 321 321 322 323 323 325 326 325 325 323 321 321 318 315 314 313 310 307 306 306 305 306 305 304 305 303 304 306 307 305 301 303 312 305 284 277 276 277 280 285 289 293 296 298 299 299 299 300
238 238 264 276 254 197 167 153 144 140 115 81 42 15 2 352 345 342 342 343 341 342 342 341 341 341 341 342 343 343 344 343 341 341 339 337 334 333 333 332 332 331 330 329 328 328 327 326 327 324 322 321 318 316 316 315 313 312 311 308 307 306 304 304 306 306 306 308 308 307 306 306 309 300 289 284 279 279 284 289 294 298 300 301 301 301 302 303
226 254 269 246 187 159 158 154 148 140 103 56 21 5 353 346 343 342 344 343 341 342 343 344 344 345 346 347 348 349 348 347 347 347 346 345 343 343 343 343 342 340 337 335 332 331 329 328 328 325 323 321 320 319 319 318 318 316 314 311 308 306 303 303 304 304 306 309 310 311 309 308 310 302 290 286 286 289 294 298 301 303 303 304 305 306 305 303
239 257 232 186 168 162 163 157 147 124 77 27 5 356 347 343 343 344 345 343 343 345 346 347 348 349 350 351 352 352 352 351 350 350 350 349 349 349 349 349 347 345 343 339 336 335 333 333 331 329 327 325 325 324 323 324 324 322 319 315 314 312 310 311 311 309 311 312 312 313 310 308 312 306 294 291 295 299 302 304 305 304 304 306 308 307 305 302
243 229 189 175 170 168 168 161 150 99 39 1 352 348 342 341 343 345 345 345 346 348 349 350 351 352 354 355 356 356 355 355 353 354 353 352 353 353 351 351 349 347 346 342 340 337 335 335 334 333 332 329 328 328 326 328 328 327 325 321 320 318 315 316 317 314 314 314 313 313 310 308 311 309 300 297 300 303 304 306 305 304 304 306 308 307 305 303
226 198 179 174 172 174 173 164 148 55 6 346 343 342 340 341 344 344 345 348 350 350 352 352 353 356 357 358 359 359 359 359 358 359 358 357 357 356 355 354 352 350 348 345 343 340 337 338 337 335 335 332 331 331 328 328 329 328 327 325 324 321 319 318 319 317 315 314 313 312 312 309 311 313 305 300 301 302 302 304 304 303 304 305 307 307 305 304
203 184 177 176 178 181 177 171 141 23 347 339 339 338 340 341 343 346 349 352 351 351 353 353 355 359 360 1 1 1 1 1 2 2 1 1 1 0 359 358 356 354 352 350 347 345 342 340 339 338 337 335 333 333 330 329 329 328 327 326 325 323 321 318 319 319 316 314 312 310 311 310 311 311 302 298 300 300 299 301 302 301 302 303 305 306 305 305
188 178 177 181 184 185 180 186 204 344 334 336 336 336 339 341 344 349 351 352 351 352 354 355 358 0 1 3 2 2 2 2 4 4 3 2 1 2 1 359 359 357 355 353 350 349 347 343 342 342 340 338 335 335 333 331 330 329 328 328 326 323 321 320 319 319 316 313 312 312 311 314 317 311 297 295 298 298 298 300 301 301 302 303 305 305 305 305
181 177 182 186 186 188 195 214 271 322 330 334 334 334 338 342 347 351 351 352 351 352 355 356 358 360 2 3 2 3 3 1 2 1 0 0 358 359 359 357 357 355 354 354 350 349 349 346 344 343 342 341 337 338 337 333 332 331 329 329 326 322 321 321 320 320 318 313 312 312 312 320 327 311 295 295 299 301 301 302 303 303 303 304 305 305 305 305
181 183 192 193 192 202 220 250 286 319 331 332 331 334 339 342 346 349 350 351 350 352 355 356 358 359 360 0 359 360 360 358 358 357 356 355 354 354 354 353 353 351 350 350 348 347 345 345 344 342 342 342 339 338 337 335 334 332 331 330 327 323 322 321 319 320 319 314 314 313 311 322 329 306 301 308 308 306 303 302 303 304 305 306 305 305 304 305
187 194 201 200 201 217 245 272 293 322 331 329 330 334 338 341 345 349 349 348 348 351 353 354 356 356 356 357 355 355 354 353 352 352 351 350 349 349 349 349 348 346 346 344 344 344 341 340 342 341 340 339 338 336 334 335 334 332 333 331 328 325 322 320 319 320 319 315 315 313 310 320 330 301 317 320 308 303 299 298 303 305 306 307 305 304 304 304
197 206 211 208 213 229 252 269 298 324 328 327 327 329 335 341 344 346 345 345 346 348 350 351 352 352 352 352 351 350 349 348 347 346 346 346 346 345 344 344 344 342 342 340 338 339 337 336 337 338 337 336 335 333 332 333 333 332 333 331 329 325 322 320 318 319 318 315 316 312 308 316 338 310 316 314 303 301 298 298 303 304 306 307 305 304 304 304
208 215 218 223 229 240 256 271 304 323 323 321 320 323 333 340 341 341 341 342 343 344 345 346 347 347 346 346 346 345 345 345 344 342 341 342 341 340 340 339 339 337 337 336 334 334 334 333 333 334 333 333 332 329 329 330 330 331 332 330 328 325 322 321 318 318 317 313 316 312 305 310 336 318 313 310 305 304 301 301 302 303 306 307 305 304 304 303
215 220 225 234 241 251 266 281 305 317 314 312 312 317 329 335 337 336 336 337 338 338 339 340 341 341 341 341 341 341 340 340 339 338 337 337 336 336 336 335 334 333 333 333 331 329 331 331 330 330 330 330 330 326 326 328 326 327 330 328 327 325 323 321 318 318 316 313 317 311 301 307 327 318 312 312 309 306 303 302 302 304 307 308 305 305 304 304
216 224 229 237 248 262 274 285 304 311 305 303 305 314 324 329 330 330 329 331 332 333 334 334 336 336 336 338 338 337 336 335 335 335 333 333 333 332 332 331 330 329 328 329 327 325 327 328 327 327 326 327 327 323 322 324 323 324 327 326 324 323 322 320 318 316 315 316 319 308 300 310 321 316 313 314 310 306 303 301 303 306 308 307 306 305 304 305
226 236 238 242 255 273 283 289 301 303 297 296 301 312 320 321 322 322 322 324 325 327 329 330 332 334 333 334 333 333 332 331 332 331 329 328 328 327 327 327 326 325 324 324 324 322 323 324 324 324 323 324 325 322 320 322 322 322 324 323 322 321 318 317 316 314 314 317 316 305 304 313 317 314 315 315 310 306 302 302 305 307 307 307 306 305 305 305
240 248 249 249 263 283 290 293 298 296 291 292 298 308 315 313 315 315 315 319 320 321 325 325 327 331 331 330 330 329 329 327 327 327 326 324 323 324 323 323 323 322 320 320 320 319 319 321 321 320 319 321 321 319 319 319 318 319 321 320 320 319 316 315 313 312 315 315 309 306 309 312 313 315 317 313 308 305 304 305 307 307 307 308 306 305 305 304
245 253 255 259 274 288 292 294 295 290 287 292 298 304 308 307 309 309 310 314 316 318 321 322 323 326 327 326 326 326 325 324 323 324 323 320 320 320 319 319 320 319 317 317 317 316 316 318 318 315 315 317 317 315 315 314 314 315 316 317 318 317 314 312 310 312 315 311 307 312 315 311 313 318 316 309 306 305 306 307 306 306 307 306 304 304 304 304
253 259 262 271 283 291 293 294 292 287 285 292 298 301 303 303 304 306 307 311 315 316 318 319 319 320 322 322 322 323 322 320 321 321 319 317 318 317 316 316 316 316 315 314 314 313 313 314 315 312 312 314 313 312 312 311 311 312 313 314 316 315 312 309 309 313 313 307 308 317 316 310 315 320 313 308 307 307 307 306 305 306 305 303 302 302 302 302
260 264 266 277 287 292 294 294 291 288 287 292 297 299 301 300 301 304 306 308 313 314 315 317 317 317 320 319 318 320 318 316 319 319 315 314 315 314 313 313 313 313 312 312 312 311 310 312 314 311 309 311 311 309 308 308 308 309 310 312 313 311 309 308 309 312 310 306 309 316 312 309 315 316 309 307 308 306 306 305 305 305 303 302 301 300 300 302
264 267 271 280 287 292 295 294 290 288 289 293 296 297 299 299 299 302 305 307 310 310 312 315 314 314 317 316 316 317 314 313 316 316 312 312 312 312 311 310 310 310 310 310 310 309 308 310 312 310 307 308 308 307 306 306 305 305 307 311 310 308 307 307 309 310 308 306 310 312 309 310 314 311 306 306 306 305 304 304 304 304 303 302 300 298 299 301
266 270 276 282 286 290 293 292 289 287 288 292 295 295 297 298 297 298 303 307 308 309 309 311 311 312 313 313 314 314 311 311 314 313 311 310 310 310 308 308 308 307 308 308 308 307 307 309 311 309 306 307 307 305 304 304 302 302 306 310 308 305 306 307 307 308 307 306 309 310 309 311 312 307 304 305 305 303 303 303 303 304 304 302 299 298 298 299
273 276 280 282 283 286 287 288 288 288 288 292 294 293 296 298 297 296 300 303 306 307 307 307 308 309 310 312 313 311 308 309 310 310 309 309 308 308 306 306 306 305 306 307 305 305 306 307 309 307 304 306 307 304 303 303 299 299 306 309 306 304 304 304 304 305 305 305 307 309 309 310 310 306 304 304 304 303 303 303 304 304 305 302 298 297 297 298
279 283 285 285 285 285 283 283 285 286 287 290 292 292 295 297 297 297 298 300 303 305 305 306 307 307 309 311 310 308 307 307 307 307 307 307 306 306 305 304 304 303 304 304 303 304 305 306 307 305 303 306 306 304 303 300 297 301 308 308 304 303 303 302 302 303 303 304 306 307 308 310 309 307 306 305 304 303 303 304 304 305 304 301 297 297 297 298
Height
5781 5781 5781 5781 5781 5781 5780 5779 5779 5779 5779 5779 5779 5779 5780 5779 5779 5779 5779 5779 5778 5778 5779 5780 5780 5780 5780 5780 5780 5780 5780 5779 5778 5778 5778 5779 5779 5779 5779 5778 5778 5779 5779 5779 5779 5779 5779 5779 5778 5778 5778 5777 5777 5777 5777 5777 5777 5776 5776 5775 5774 5774 5773 5773 5773 5772 5772 5772 5771 5771 5770 5770 5769 5768 5768 5767 5767 5767 5766 5766 5766 5765 5764 5764 5763 5763 5762 5762
5782 5781 5782 5782 5781 5781 5780 5780 5780 5780 5780 5779 5779 5780 5780 5779 5779 5779 5778 5778 5778 5778 5778 5779 5779 5779 5779 5779 5780 5780 5779 5779 5778 5777 5777 5777 5777 5777 5777 5777 5777 5777 5777 5777 5777 5777 5777 5777 5777 5777 5777 5777 5776 5776 5776 5776 5775 5775 5774 5773 5772 5772 5771 5771 5771 5770 5770 5770 5769 5769 5768 5767 5767 5766 5765 5765 5764 5764 5764 5763 5762 5762 5761 5761 5760 5759 5759 5758
5782 5782 5782 5782 5782 5781 5781 5781 5780 5780 5780 5780 5780 5780 5780 5780 5779 5779 5779 5778 5778 5778 5778 5779 5779 5779 5778 5778 5778 5779 5778 5778 5778 5777 5776 5776 5776 5777 5777 5777 5776 5776 5776 5776 5776 5776 5776 5776 5776 5776 5775 5775 5775 5774 5774 5774 5774 5773 5773 5771 5771 5770 5770 5769 5769 5768 5767 5767 5767 5766 5765 5765 5764 5763 5762 5762 5761 5761 5760 5760 5759 5759 5758 5758 5757 5756 5756 5755
5782 5782 5782 5782 5781 5781 5781 5781 5780 5780 5780 5781 5781 5781 5781 5780 5780 5779 5779 5779 5779 5779 5779 5779 5779 5778 5778 5778 5778 5778 5778 5777 5776 5776 5776 5776 5776 5776 5776 5776 5776 5776 5775 5775 5775 5775 5774 5774 5774 5774 5773 5773 5773 5773 5773 5772 5772 5771 5770 5770 5769 5768 5767 5767 5766 5765 5765 5764 5764 5763 5762 5762 5761 5760 5760 5759 5758 5758 5757 5757 5756 5756 5755 5754 5754 5753 5752 5752
5782 5782 5782 5782 5781 5781 5781 5780 5780 5780 5780 5781 5781 5781 5781 5781 5780 5780 5779 5779 5779 5779 5779 5778 5778 5778 5778 5778 5777 5777 5777 5777 5776 5776 5776 5776 5776 5776 5776 5776 5775 5775 5774 5774 5774 5774 5774 5773 5773 5772 5772 5771 5771 5771 5771 5770 5769 5768 5768 5767 5767 5766 5765 5764 5763 5763 5762 5761 5761 5760 5759 5758 5758 5757 5756 5755 5755 5755 5754 5753 5753 5752 5751 5750 5750 5749 5748 5748
5782 5782 5782 5782 5782 5782 5781 5780 5780 5780 5781 5781 5781 5782 5781 5780 5780 5779 5779 5779 5779 5779 5779 5778 5778 5778 5778 5777 5777 5777 5777 5776 5776 5776 5775 5775 5775 5775 5775 5774 5774 5774 5774 5773 5773 5772 5772 5772 5771 5771 5770 5769 5769 5768 5768 5767 5766 5766 5766 5765 5764 5763 5762 5761 5761 5760 5759 5758 5757 5756 5756 5755 5754 5753 5753 5752 5751 5751 5750 5749 5749 5748 5747 5746 5745 5745 5744 5743
5782 5782 5781 5781 5782 5782 5781 5780 5780 5781 5781 5781 5781 5781 5781 5780 5779 5779 5779 5779 5779 5779 5779 5778 5778 5778 5777 5777 5777 5776 5776 5775 5775 5775 5775 5775 5774 5774 5774 5773 5773 5772 5772 5772 5771 5771 5770 5770 5769 5769 5768 5767 5767 5766 5765 5765 5764 5763 5763 5762 5761 5760 5760 5759 5758 5757 5756 5755 5754 5753 5752 5752 5751 5750 5749 5748 5747 5747 5746 5745 5744 5744 5743 5742 5741 5741 5740 5739
5783 5782 5782 5782 5781 5781 5781 5781 5781 5781 5781 5781 5781 5781 5780 5780 5780 5779 5779 5779 5779 5779 5779 5778 5778 5777 5777 5776 5776 5776 5775 5774 5774 5774 5774 5774 5773 5773 5772 5772 5771 5771 5770 5770 5769 5768 5768 5768 5767 5766 5766 5765 5765 5764 5763 5762 5761 5761 5760 5759 5758 5758 5757 5756 5755 5754 5753 5752 5751 5750 5749 5748 5747 5746 5745 5744 5743 5742 5742 5741 5740 5740 5739 5738 5737 5736 5736 5735
5783 5783 5782 5782 5781 5780 5780 5781 5781 5781 5781 5781 5781 5780 5780 5780 5780 5779 5779 5779 5779 5778 5778 5778 5777 5777 5777 5776 5776 5775 5774 5774 5774 5773 5773 5772 5772 5771 5771 5770 5769 5769 5768 5768 5767 5767 5766 5765 5765 5764 5763 5763 5762 5762 5761 5759 5759 5759 5757 5756 5756 5755 5754 5753 5752 5751 5750 5749 5748 5746 5745 5744 5743 5743 5742 5741 5740 5739 5738 5737 5736 5735 5734 5734 5733 5732 5731 5730
5784 5783 5783 5782 5781 5780 5780 5781 5781 5781 5781 5781 5781 5780 5780 5780 5780 5779 5779 5779 5779 5778 5778 5777 5777 5776 5776 5775 5775 5774 5773 5773 5773 5772 5772 5771 5770 5770 5769 5768 5768 5767 5767 5766 5766 5765 5764 5764 5763 5762 5761 5761 5760 5759 5758 5757 5757 5756 5754 5754 5753 5752 5751 5750 5749 5748 5746 5745 5744 5743 5742 5741 5740 5739 5739 5738 5736 5735 5734 5733 5732 5731 5730 5729 5728 5727 5726 5725
5784 5784 5783 5782 5781 5780 5780 5781 5781 5781 5781 5781 5780 5780 5780 5780 5779 5779 5778 5778 5778 5777 5777 5776 5776 5775 5774 5774 5773 5773 5772 5771 5771 5771 5770 5769 5769 5768 5767 5767 5766 5766 5765 5765 5764 5763 5763 5762 5761 5760 5759 5758 5757 5756 5756 5754 5753 5752 5751 5750 5749 5749 5748 5747 5745 5744 5743 5742 5740 5739 5738 5738 5737 5736 5735 5734 5732 5731 5730 5729 5728 5727 5726 5725 5724 5723 5722 5721
5784 5783 5782 5781 5781 5780 5780 5781 5781 5781 5781 5780 5780 5780 5780 5779 5779 5778 5778 5778 5777 5776 5776 5775 5774 5774 5773 5772 5772 5772 5771 5770 5770 5769 5769 5768 5767 5767 5766 5765 5765 5764 5764 5763 5762 5761 5760 5759 5759 5758 5757 5756 5755 5754 5753 5752 5750 5749 5748 5747 5746 5745 5744 5743 5742 5741 5739 5738 5737 5736 5735 5734 5733 5733 5732 5730 5728 5727 5726 5725 5724 5722 5721 5720 5719 5718 5717 5716
5783 5783 5782 5781 5781 5781 5781 5781 5780 5780 5780 5780 5780 5780 5780 5779 5779 5778 5778 5777 5776 5776 5775 5774 5774 5773 5772 5771 5771 5770 5770 5769 5769 5768 5767 5767 5766 5765 5765 5764 5763 5763 5762 5761 5760 5759 5758 5757 5756 5755 5755 5753 5752 5751 5750 5749 5748 5746 5745 5744 5743 5742 5741 5740 5738 5737 5736 5735 5734 5732 5731 5731 5729 5730 5729 5725 5724 5723 5722 5721 5719 5718 5717 5716 5714 5713 5712 5711
5783 5782 5781 5781 5780 5781 5781 5780 5780 5780 5780 5780 5780 5780 5779 5779 5779 5778 5777 5777 5776 5775 5774 5774 5773 5772 5771 5771 5770 5769 5769 5768 5767 5767 5766 5765 5764 5764 5763 5762 5761 5761 5760 5759 5758 5757 5756 5755 5754 5753 5752 5751 5749 5748 5747 5746 5744 5743 5742 5740 5739 5737 5737 5737 5735 5733 5732 5731 5730 5727 5727 5726 5725 5725 5724 5721 5720 5718 5717 5716 5715 5714 5712 5711 5709 5708 5707 5706
5783 5782 5781 5781 5780 5780 5780 5780 5780 5780 5780 5780 5780 5779 5779 5778 5778 5777 5776 5776 5775 5774 5774 5773 5772 5772 5771 5770 5769 5769 5768 5767 5766 5766 5765 5764 5763 5762 5762 5761 5760 5759 5758 5757 5756 5755 5754 5752 5751 5750 5749 5747 5746 5745 5743 5742 5741 5740 5738 5736 5736 5734 5732 5733 5731 5729 5728 5727 5725 5723 5722 5722 5721 5721 5718 5716 5715 5714 5713 5711 5710 5709 5707 5705 5704 5703 5702 5700
5783 5782 5781 5781 5780 5780 5780 5780 5780 5780 5780 5780 5779 5779 5778 5778 5777 5776 5776 5775 5774 5774 5773 5772 5771 5771 5770 5769 5768 5768 5767 5766 5766 5765 5764 5763 5762 5761 5761 5760 5758 5757 5756 5755 5754 5753 5751 5750 5749 5747 5746 5745 5743 5742 5740 5739 5738 5737 5735 5733 5732 5731 5729 5728 5728 5726 5724 5723 5722 5720 5719 5717 5716 5715 5714 5712 5711 5709 5708 5707 5705 5703 5702 5701 5699 5698 5697 5695
5783 5782 5782 5781 5780 5780 5780 5780 5780 5780 5780 5779 5779 5778 5777 5777 5776 5776 5775 5774 5774 5773 5772 5771 5770 5770 5769 5768 5767 5767 5766 5765 5765 5764 5763 5762 5761 5760 5759 5758 5757 5755 5754 5753 5751 5750 5749 5747 5746 5745 5744 5742 5741 5739 5738 5736 5735 5734 5733 5731 5729 5728 5726 5724 5724 5724 5721 5719 5718 5716 5715 5714 5711 5710 5710 5708 5706 5705 5704 5702 5700 5699 5698 5696 5695 5694 5692 5691
5782 5782 5781 5781 5780 5780 5780 5780 5780 5779 5779 5779 5778 5777 5776 5776 5775 5775 5774 5774 5773 5772 5771 5771 5770 5769 5768 5768 5767 5766 5766 5765 5764 5763 5762 5761 5760 5759 5757 5756 5755 5753 5752 5750 5749 5748 5746 5745 5744 5742 5741 5740 5738 5737 5735 5733 5732 5730 5730 5728 5726 5725 5723 5722 5721 5720 5718 5716 5715 5713 5712 5711 5708 5706 5706 5704 5703 5702 5700 5698 5697 5696 5694 5693 5692 5690 5689 5687
5782 5782 5781 5781 5780 5780 5780 5780 5779 5779 5778 5778 5777 5776 5776 5775 5775 5774 5774 5773 5773 5772 5771 5771 5770 5769 5769 5768 5767 5766 5765 5764 5763 5762 5761 5759 5758 5757 5755 5754 5753 5751 5750 5748 5747 5745 5744 5743 5741 5740 5739 5738 5736 5735 5733 5731 5730 5728 5726 5725 5723 5722 5720 5720 5718 5716 5714 5713 5712 5710 5708 5708 5706 5703 5702 5702 5700 5698 5697 5695 5694 5693 5691 5690 5688 5687 5685 5684
5782 5781 5781 5781 5780 5780 5780 5779 5779 5778 5778 5777 5777 5776 5775 5775 5774 5774 5773 5773 5773 5772 5772 5771 5770 5770 5769 5768 5767 5766 5765 5764 5762 5761 5759 5758 5756 5755 5753 5752 5750 5749 5747 5746 5744 5743 5742 5740 5739 5738 5736 5735 5734 5732 5731 5729 5727 5725 5724 5722 5721 5719 5717 5717 5715 5713 5711 5710 5709 5707 5705 5705 5703 5700 5699 5698 5697 5695 5693 5692 5691 5689 5688 5686 5685 5684 5682 5681
5781 5781 5781 5780 5780 5780 5779 5779 5778 5778 5777 5777 5776 5776 5775 5775 5774 5774 5774 5773 5773 5773 5772 5771 5770 5769 5768 5767 5766 5765 5764 5763 5761 5759 5758 5756 5754 5752 5751 5749 5748 5746 5745 5744 5742 5741 5740 5738 5737 5735 5734 5733 5731 5730 5728 5726 5725 5723 5721 5720 5718 5717 5715 5714 5712 5710 5709 5707 5706 5704 5703 5702 5700 5697 5695 5694 5693 5692 5690 5689 5687 5685 5684 5683 5682 5681 5680 5678
5781 5781 5780 5780 5780 5779 5779 5778 5778 5777 5777 5777 5776 5775 5775 5775 5774 5774 5774 5774 5773 5773 5772 5771 5770 5769 5768 5767 5765 5764 5763 5761 5759 5758 5756 5754 5752 5750 5748 5747 5745 5744 5743 5741 5740 5739 5738 5736 5735 5733 5732 5730 5728 5727 5725 5724 5722 5720 5719 5717 5716 5714 5713 5711 5709 5708 5706 5704 5703 5701 5701 5700 5696 5694 5692 5689 5689 5689 5687 5685 5684 5682 5680 5679 5678 5678 5676 5675
5781 5780 5780 5780 5779 5779 5778 5778 5777 5777 5777 5776 5776 5776 5775 5775 5775 5775 5774 5774 5773 5773 5772 5771 5769 5768 5767 5766 5764 5763 5761 5759 5758 5756 5754 5752 5750 5748 5746 5745 5743 5742 5740 5739 5738 5737 5735 5734 5733 5731 5729 5728 5726 5724 5723 5721 5720 5718 5716 5715 5713 5712 5710 5708 5707 5705 5703 5702 5700 5697 5698 5698 5694 5691 5688 5685 5685 5684 5683 5682 5680 5678 5677 5676 5675 5674 5673 5671
5780 5780 5779 5779 5778 5778 5777 5777 5777 5777 5777 5776 5776 5776 5776 5775 5775 5775 5774 5774 5773 5772 5771 5770 5769 5767 5766 5765 5763 5762 5760 5758 5756 5754 5752 5750 5748 5747 5745 5743 5742 5740 5739 5737 5736 5735 5733 5732 5730 5729 5727 5725 5723 5722 5720 5718 5717 5715 5714 5712 5711 5709 5707 5706 5704 5703 5701 5699 5697 5694 5694 5695 5692 5689 5685 5682 5681 5680 5679 5679 5677 5674 5673 5672 5672 5670 5668 5667
5780 5779 5779 5778 5778 5777 5777 5777 5777 5777 5777 5776 5776 5776 5776 5776 5775 5775 5774 5773 5772 5771 5770 5769 5768 5766 5765 5763 5762 5760 5758 5756 5754 5752 5750 5748 5746 5745 5743 5741 5740 5738 5737 5735 5734 5733 5731 5729 5728 5726 5724 5723 5721 5719 5718 5716 5714 5713 5711 5710 5708 5707 5705 5703 5701 5700 5698 5697 5695 5691 5690 5692 5690 5687 5684 5679 5676 5675 5675 5675 5673 5671 5670 5669 5668 5666 5664 5663
5779 5778 5778 5778 5777 5777 5777 5777 5777 5777 5777 5776 5776 5776 5776 5775 5775 5774 5774 5773 5772 5771 5769 5768 5767 5765 5764 5762 5760 5758 5756 5754 5752 5750 5748 5746 5745 5743 5741 5740 5738 5736 5735 5733 5732 5730 5729 5727 5725 5723 5722 5720 5718 5717 5715 5713 5712 5710 5709 5707 5706 5704 5703 5701 5699 5697 5695 5694 5693 5690 5687 5689 5688 5685 5682 5676 5673 5672 5671 5671 5670 5668 5666 5665 5664 5663 5661 5660
5779 5778 5778 5777 5777 5777 5777 5777 5777 5777 5777 5777 5776 5776 5776 5775 5775 5774 5773 5772 5771 5770 5768 5767 5766 5764 5762 5761 5759 5757 5755 5753 5751 5749 5747 5745 5743 5741 5739 5738 5736 5734 5733 5731 5730 5728 5726 5725 5723 5721 5719 5718 5716 5714 5713 5711 5710 5708 5707 5705 5704 5702 5700 5699 5697 5695 5693 5692 5691 5689 5686 5685 5686 5684 5679 5674 5670 5669 5667 5666 5665 5664 5663 5663 5661 5660 5659 5657
5778 5778 5777 5777 5777 5777 5777 5777 5777 5777 5777 5777 5776 5776 5775 5775 5774 5773 5772 5771 5770 5769 5768 5766 5765 5763 5761 5760 5757 5755 5753 5751 5749 5747 5745 5743 5741 5739 5738 5736 5734 5733 5731 5729 5728 5726 5725 5723 5721 5720 5718 5716 5715 5713 5711 5710 5708 5707 5705 5703 5702 5700 5698 5697 5695 5693 5691 5690 5689 5687 5684 5682 5683 5680 5675 5671 5668 5665 5663 5662 5661 5661 5660 5659 5658 5657 5656 5654
5778 5777 5777 5777 5777 5777 5776 5777 5777 5777 5777 5776 5776 5775 5775 5774 5773 5772 5772 5770 5769 5768 5767 5765 5764 5762 5760 5758 5756 5754 5752 5750 5748 5746 5744 5742 5740 5738 5736 5735 5733 5732 5730 5728 5726 5725 5723 5722 5720 5718 5717 5715 5713 5712 5710 5708 5707 5705 5703 5702 5700 5698 5696 5694 5693 5691 5689 5688 5687 5685 5681 5679 5680 5677 5670 5668 5666 5662 5660 5658 5657 5657 5656 5656 5655 5654 5652 5651
5777 5777 5777 5777 5777 5777 5777 5777 5777 5777 5777 5776 5776 5775 5774 5774 5773 5772 5771 5770 5769 5767 5766 5765 5763 5761 5759 5757 5755 5753 5751 5749 5747 5745 5743 5741 5739 5737 5736 5734 5732 5731 5729 5727 5725 5724 5722 5720 5719 5717 5715 5714 5712 5710 5708 5707 5705 5703 5701 5699 5697 5696 5694 5693 5691 5689 5687 5686 5685 5682 5679 5676 5676 5674 5667 5663 5661 5658 5656 5656 5655 5654 5653 5651 5651 5650 5648 5647
5777 5777 5776 5776 5776 5777 5777 5777 5777 5777 5776 5776 5775 5775 5774 5773 5772 5771 5770 5769 5768 5767 5765 5764 5762 5760 5758 5756 5754 5752 5750 5748 5746 5744 5742 5741 5739 5737 5735 5733 5732 5730 5728 5726 5725 5723 5721 5720 5718 5716 5714 5712 5711 5709 5707 5705 5703 5701 5699 5697 5695 5693 5691 5690 5689 5687 5685 5684 5682 5679 5677 5674 5672 5670 5665 5659 5657 5655 5654 5654 5653 5651 5649 5647 5646 5646 5644 5642
5776 5776 5776 5776 5776 5777 5777 5777 5777 5776 5776 5775 5775 5774 5774 5773 5772 5771 5770 5769 5767 5766 5765 5763 5761 5760 5758 5756 5754 5752 5750 5748 5746 5744 5742 5740 5738 5737 5735 5733 5731 5729 5727 5726 5724 5722 5721 5719 5717 5715 5713 5711 5709 5707 5705 5704 5701 5699 5697 5694 5692 5690 5688 5687 5686 5684 5683 5681 5679 5677 5674 5671 5670 5667 5661 5657 5655 5653 5652 5651 5650 5648 5646 5644 5643 5642 5640 5638
5776 5776 5776 5776 5776 5777 5777 5777 5776 5776 5776 5775 5775 5774 5773 5772 5771 5770 5769 5768 5767 5766 5764 5762 5761 5759 5757 5755 5753 5751 5749 5748 5746 5744 5742 5740 5738 5736 5734 5732 5730 5729 5727 5725 5723 5721 5720 5718 5716 5714 5712 5710 5708 5706 5704 5702 5700 5698 5695 5692 5690 5687 5685 5684 5683 5681 5680 5678 5677 5675 5672 5669 5667 5664 5658 5655 5654 5651 5649 5648 5646 5644 5643 5641 5640 5638 5636 5634
5776 5776 5776 5776 5776 5777 5776 5776 5776 5776 5775 5775 5774 5774 5773 5772 5771 5770 5769 5768 5766 5765 5763 5762 5760 5758 5756 5755 5753 5751 5749 5748 5746 5744 5742 5740 5738 5736 5734 5732 5730 5728 5726 5724 5722 5720 5718 5717 5715 5713 5711 5708 5706 5704 5702 5700 5699 5696 5694 5691 5688 5686 5682 5680 5679 5677 5675 5675 5674 5672 5670 5667 5665 5661 5655 5651 5651 5648 5646 5644 5642 5640 5639 5637 5636 5634 5632 5629
5776 5776 5776 5776 5776 5776 5776 5776 5776 5776 5775 5775 5774 5773 5772 5771 5770 5769 5768 5767 5766 5764 5763 5761 5759 5758 5756 5754 5753 5751 5749 5747 5746 5744 5742 5740 5738 5736 5734 5732 5730 5728 5726 5724 5722 5720 5717 5715 5713 5711 5709 5707 5705 5703 5700 5698 5697 5695 5692 5690 5687 5684 5681 5678 5676 5674 5670 5669 5670 5669 5668 5665 5663 5660 5653 5648 5647 5645 5643 5642 5640 5637 5635 5634 5632 5630 5627 5624
5776 5776 5776 5776 5776 5776 5776 5776 5776 5775 5775 5774 5774 5773 5772 5771 5770 5769 5768 5767 5765 5764 5762 5761 5759 5757 5756 5754 5752 5751 5749 5747 5746 5744 5742 5740 5738 5736 5734 5732 5730 5727 5725 5723 5721 5719 5717 5714 5712 5710 5708 5705 5703 5701 5699 5696 5694 5692 5690 5687 5684 5682 5679 5675 5672 5671 5667 5663 5663 5664 5663 5663 5661 5657 5651 5647 5645 5642 5640 5638 5637 5634 5632 5629 5627 5624 5622 5619
5776 5776 5776 5776 5776 5776 5776 5776 5775 5775 5775 5774 5773 5772 5771 5770 5769 5768 5767 5766 5765 5763 5762 5760 5759 5757 5756 5754 5752 5751 5749 5747 5745 5743 5741 5740 5737 5735 5733 5731 5729 5727 5725 5723 5720 5718 5716 5713 5711 5709 5706 5704 5702 5700 5697 5694 5692 5690 5687 5685 5681 5678 5676 5673 5669 5667 5663 5658 5657 5658 5658 5658 5657 5652 5648 5646 5644 5640 5637 5635 5633 5630 5628 5625 5622 5619 5616 5614
5775 5776 5776 5776 5776 5776 5776 5775 5775 5775 5774 5773 5772 5771 5771 5770 5769 5768 5767 5765 5764 5763 5761 5760 5758 5757 5755 5754 5752 5750 5749 5747 5745 5743 5741 5739 5737 5735 5733 5731 5728 5726 5724 5722 5719 5717 5715 5712 5710 5707 5705 5702 5700 5698 5696 5693 5690 5687 5685 5682 5679 5675 5673 5671 5667 5664 5660 5654 5651 5651 5651 5653 5653 5649 5647 5645 5643 5638 5633 5630 5628 5625 5623 5620 5617 5614 5611 5608
5776 5776 5776 5776 5776 5775 5775 5775 5774 5774 5773 5772 5772 5771 5770 5769 5768 5767 5766 5765 5763 5762 5761 5759 5758 5756 5755 5753 5751 5750 5748 5746 5744 5742 5740 5738 5736 5734 5732 5729 5727 5725 5722 5720 5718 5715 5713 5710 5708 5706 5703 5701 5698 5695 5693 5691 5689 5685 5683 5680 5677 5674 5670 5667 5665 5663 5658 5652 5647 5644 5643 5648 5650 5647 5646 5644 5640 5635 5629 5625 5623 5620 5618 5615 5612 5609 5606 5603
5775 5776 5775 5775 5775 5775 5775 5774 5774 5773 5772 5772 5771 5770 5770 5769 5768 5767 5765 5764 5763 5761 5760 5759 5757 5756 5754 5752 5750 5749 5747 5745 5743 5741 5739 5737 5735 5732 5730 5728 5726 5723 5721 5718 5716 5714 5711 5708 5706 5704 5701 5699 5696 5693 5690 5688 5686 5683 5681 5678 5675 5671 5667 5664 5662 5661 5657 5651 5646 5640 5634 5641 5648 5646 5643 5640 5634 5630 5624 5619 5617 5615 5613 5610 5606 5603 5600 5597
5775 5775 5775 5775 5775 5774 5774 5774 5773 5772 5772 5771 5770 5770 5769 5768 5767 5766 5765 5763 5762 5761 5759 5758 5756 5755 5753 5751 5750 5748 5746 5744 5742 5740 5738 5735 5733 5731 5728 5726 5724 5721 5719 5717 5714 5711 5709 5706 5704 5701 5699 5696 5694 5691 5688 5686 5683 5681 5678 5675 5672 5668 5664 5660 5656 5656 5655 5650 5647 5640 5629 5634 5644 5642 5637 5634 5629 5624 5619 5614 5612 5610 5608 5605 5601 5598 5594 5591
5775 5775 5775 5774 5774 5774 5774 5773 5772 5772 5771 5770 5770 5769 5768 5767 5766 5765 5764 5763 5761 5760 5758 5757 5755 5754 5752 5750 5748 5746 5744 5743 5740 5738 5736 5734 5731 5729 5727 5724 5722 5719 5717 5714 5712 5709 5706 5704 5701 5699 5697 5694 5691 5688 5686 5683 5680 5678 5675 5672 5668 5665 5661 5657 5651 5649 5648 5646 5646 5639 5626 5627 5638 5636 5630 5628 5623 5618 5613 5608 5606 5604 5602 5599 5595 5592 5588 5585
5775 5774 5774 5774 5774 5774 5773 5772 5772 5771 5770 5770 5769 5768 5767 5766 5765 5764 5763 5762 5760 5759 5757 5756 5754 5753 5751 5749 5747 5745 5743 5741 5739 5736 5734 5732 5729 5727 5724 5722 5719 5717 5714 5711 5709 5706 5703 5701 5698 5696 5694 5691 5689 5686 5683 5681 5678 5675 5673 5669 5665 5661 5657 5654 5649 5644 5641 5641 5640 5632 5620 5621 5629 5627 5623 5621 5616 5611 5607 5603 5600 5599 5596 5593 5589 5585 5582 5578
5774 5774 5774 5774 5773 5773 5772 5772 5771 5770 5770 5769 5768 5767 5766 5765 5764 5763 5762 5760 5759 5758 5756 5755 5753 5751 5749 5747 5745 5743 5741 5739 5737 5734 5732 5729 5727 5724 5722 5719 5717 5714 5711 5708 5706 5703 5700 5697 5694 5691 5689 5687 5685 5682 5679 5677 5674 5672 5670 5666 5663 5659 5654 5650 5646 5641 5637 5636 5634 5626 5617 5617 5620 5619 5616 5613 5608 5604 5600 5597 5595 5593 5590 5586 5583 5579 5575 5571
5774 5774 5774 5773 5773 5772 5771 5771 5770 5769 5769 5768 5767 5766 5765 5764 5763 5762 5761 5759 5758 5756 5755 5753 5751 5750 5748 5746 5744 5741 5739 5736 5734 5732 5730 5727 5724 5722 5719 5717 5714 5711 5708 5705 5703 5700 5697 5695 5691 5687 5685 5682 5679 5677 5674 5672 5670 5667 5666 5663 5659 5656 5651 5646 5642 5637 5632 5629 5626 5622 5616 5613 5615 5615 5611 5606 5600 5596 5594 5591 5589 5586 5583 5580 5576 5572 5568 5565
5773 5773 5773 5772 5772 5771 5771 5770 5769 5768 5768 5767 5766 5765 5764 5763 5762 5761 5759 5758 5756 5755 5753 5752 5750 5748 5746 5743 5741 5739 5737 5734 5731 5729 5727 5724 5722 5719 5716 5714 5711 5708 5705 5702 5699 5696 5693 5692 5689 5685 5682 5679 5676 5673 5670 5668 5666 5664 5662 5659 5655 5652 5647 5642 5637 5634 5629 5621 5616 5618 5614 5606 5608 5612 5607 5599 5594 5591 5589 5586 5583 5580 5578 5574 5569 5565 5561 5558
5773 5773 5772 5772 5771 5770 5770 5769 5768 5768 5767 5766 5765 5764 5763 5762 5761 5759 5758 5756 5755 5753 5751 5750 5748 5745 5743 5741 5739 5737 5734 5731 5729 5726 5724 5721 5718 5716 5713 5710 5707 5704 5702 5698 5695 5691 5688 5687 5686 5682 5678 5676 5673 5670 5666 5663 5661 5660 5657 5654 5651 5646 5642 5638 5633 5631 5626 5615 5609 5614 5610 5599 5600 5605 5599 5592 5588 5585 5582 5580 5577 5574 5571 5567 5563 5558 5554 5551
5772 5772 5771 5771 5770 5769 5769 5768 5767 5767 5766 5765 5764 5763 5762 5760 5759 5758 5756 5755 5753 5751 5749 5748 5745 5743 5741 5738 5736 5734 5731 5728 5726 5724 5721 5717 5715 5712 5709 5706 5704 5701 5698 5694 5691 5687 5682 5681 5681 5677 5674 5672 5668 5665 5662 5658 5655 5654 5652 5650 5646 5641 5636 5632 5628 5627 5622 5611 5605 5608 5605 5596 5596 5596 5590 5586 5582 5578 5575 5573 5570 5568 5565 5561 5556 5551 5547 5543
5772 5771 5771 5770 5769 5768 5768 5767 5766 5766 5765 5764 5763 5761 5760 5759 5757 5756 5754 5753 5751 5749 5747 5745 5743 5740 5738 5736 5733 5730 5727 5724 5722 5720 5717 5714 5711 5708 5705 5703 5700 5697 5693 5690 5687 5683 5677 5675 5674 5670 5667 5667 5665 5659 5656 5653 5649 5647 5647 5646 5642 5635 5630 5626 5623 5621 5616 5607 5603 5602 5597 5594 5595 5590 5583 5581 5577 5572 5569 5566 5563 5560 5557 5554 5549 5543 5539 5536
5771 5770 5770 5769 5768 5767 5767 5766 5765 5764 5763 5762 5761 5760 5759 5757 5756 5754 5752 5750 5749 5747 5744 5742 5740 5737 5735 5733 5730 5727 5723 5720 5717 5716 5713 5710 5707 5704 5701 5698 5695 5692 5689 5686 5683 5679 5673 5668 5668 5663 5657 5659 5660 5654 5650 5647 5642 5639 5641 5641 5637 5630 5625 5619 5615 5614 5609 5602 5599 5596 5589 5588 5590 5583 5577 5575 5571 5566 5562 5559 5555 5552 5549 5545 5540 5535 5532 5528
5770 5770 5769 5768 5767 5766 5766 5765 5764 5763 5762 5761 5760 5758 5757 5755 5753 5752 5750 5748 5746 5744 5742 5739 5737 5734 5732 5729 5726 5723 5719 5716 5713 5711 5708 5705 5702 5700 5696 5693 5691 5687 5684 5681 5677 5674 5669 5663 5662 5657 5649 5649 5652 5648 5643 5640 5634 5632 5635 5636 5631 5625 5620 5614 5609 5606 5602 5597 5594 5590 5583 5581 5581 5575 5570 5567 5563 5558 5554 5550 5547 5545 5542 5537 5531 5526 5524 5521
5769 5769 5768 5767 5766 5765 5764 5763 5762 5762 5760 5759 5758 5756 5755 5753 5751 5749 5747 5746 5744 5741 5738 5736 5733 5730 5728 5726 5722 5719 5715 5712 5709 5706 5703 5700 5698 5695 5691 5688 5685 5682 5679 5676 5672 5669 5665 5659 5656 5651 5642 5641 5642 5639 5634 5630 5624 5624 5628 5628 5623 5618 5613 5607 5603 5599 5595 5591 5587 5582 5577 5575 5572 5566 5562 5559 5555 5550 5546 5542 5538 5536 5534 5529 5522 5517 5515 5512